Location: Beccas
(43.4309°N, 0.1528°E)
Time: 05:29:00
(UTC+00:00)

Cosmos 1125 Rocket - Visible Passes

Search period start: 21 May 2022 00:00
Search period end: 31 May 2022 00:00
Orbit: 758 x 779 km, 74.0° (Epoch: 20 May)

Date Brightness Start Highest point End Pass type
(mag) Time Alt. Az. Time Alt. Az. Time Alt. Az.
21 May 4.2 01:01:24 39° ESE 01:02:05 41° ESE 01:06:56 10° NE visible
21 May 4.8 02:41:40 18° WSW 02:44:17 27° WNW 02:48:41 10° N visible
22 May 5.0 00:25:04 24° ESE 00:25:20 24° E 00:29:28 10° NE visible
22 May 4.1 02:05:20 32° WSW 02:07:07 43° WNW 02:12:04 10° N visible
22 May 5.6 23:48:43 14° E 23:48:43 14° E 23:51:20 10° ENE visible
23 May 3.5 01:28:59 54° SW 01:30:03 72° WNW 01:35:16 10° NNE visible
23 May 5.7 03:11:30 10° WNW 03:13:07 11° NW 03:14:45 10° NNW visible
24 May 3.4 00:52:36 64° SE 00:53:06 69° ESE 00:58:17 10° NNE visible
24 May 5.4 02:32:51 12° W 02:35:43 18° NW 02:39:12 10° N visible
25 May 4.2 00:16:11 40° ESE 00:16:15 40° ESE 00:21:05 10° NE visible
25 May 4.9 01:56:27 22° W 01:58:26 27° WNW 02:02:52 10° N visible
25 May 5.0 23:39:45 24° E 23:39:45 24° E 23:43:35 10° NE visible
26 May 4.2 01:20:00 37° W 01:21:16 44° WNW 01:26:15 10° N visible
26 May 5.6 23:03:17 14° E 23:03:17 14° E 23:05:25 10° ENE visible
27 May 3.4 00:43:32 64° WSW 00:44:12 73° WNW 00:49:26 10° NNE visible
27 May 5.8 02:25:30 10° WNW 02:27:16 12° NW 02:29:01 10° NNW visible
28 May 3.4 00:07:03 66° ESE 00:07:15 67° ESE 00:12:26 10° NNE visible
28 May 5.5 01:47:18 13° W 01:49:51 18° NW 01:53:23 10° N visible
28 May 4.2 23:30:32 39° E 23:30:32 39° E 23:35:13 10° NE visible
29 May 4.9 01:10:46 23° W 01:12:34 28° WNW 01:17:03 10° N visible
29 May 4.9 22:53:59 23° E 22:53:59 23° E 22:57:42 10° NE visible
30 May 4.2 00:34:13 38° W 00:35:24 45° WNW 00:40:24 10° N visible
30 May 5.5 22:17:24 13° E 22:17:24 13° E 22:19:29 10° ENE visible
